FW8194 Weather Reports


Display with metric or nautical units.
time (UTC)temp
F
wind
direction
speed
MPH
gust
MPH
rain 1hr
in
rain 24hr
in
rain mn
in
humidity
%
barometer
mb
20260506231019 52 203 9.0 27.0 0.00 0.00 0.00 98 1005.1
20260506230518 52 265 10.0 26.0 0.00 0.00 0.00 98 1005.1
20260506230019 52 147 10.0 26.0 0.00 0.00 0.00 98 1004.9
20260506225518 51 145 10.0 25.0 0.00 0.00 0.00 98 1004.9
20260506225018 51 153 9.0 23.0 0.00 0.00 0.00 98 1005.0
20260506224518 51 169 10.0 26.0 0.00 0.00 0.00 98 1005.0
20260506223918 51 168 0.0 26.0 0.00 0.00 0.00 98 1004.9
20260506223419 51 163 0.0 25.0 0.00 0.00 0.00 97 1005.0
20260506222918 51 170 10.0 29.0 0.00 0.00 0.00 97 1005.0
20260506222418 51 170 12.0 27.0 0.00 0.00 0.00 97 1004.9
20260506221818 51 172 15.0 28.0 0.00 0.00 0.00 97 1004.8
20260506221318 51 170 16.0 30.0 0.00 0.00 0.00 97 1004.9
20260506220818 51 175 0.0 27.0 0.00 0.00 0.00 97 1005.0
20260506220318 51 172 0.0 25.0 0.00 0.00 0.00 96 1005.2
20260506215818 51 168 0.0 29.0 0.00 0.00 0.00 96 1005.0
20260506215318 52 176 0.0 31.0 0.00 0.00 0.00 96 1005.1
20260506214818 52 176 0.0 31.0 0.00 0.00 0.00 96 1005.3
20260506214318 52 185 0.0 30.0 0.00 0.00 0.00 95 1005.1
20260506213818 52 198 0.0 30.0 0.00 0.00 0.00 95 1005.1
20260506213318 53 209 0.0 32.0 0.00 0.00 0.00 95 1005.4
20260506212818 53 176 0.0 29.0 0.00 0.00 0.00 95 1005.4
20260506212318 52 185 0.0 31.0 0.00 0.00 0.00 94 1005.5
20260506211818 52 180 15.0 30.0 0.00 0.00 0.00 94 1005.4
20260506211318 52 168 0.0 28.0 0.00 0.00 0.00 94 1005.3
20260506210818 52 167 0.0 30.0 0.00 0.00 0.00 94 1005.5
20260506210318 52 169 16.0 28.0 0.00 0.00 0.00 94 1005.3
20260506205818 52 177 18.0 31.0 0.00 0.00 0.00 94 1005.2
20260506205318 52 176 21.0 32.0 0.00 0.00 0.00 94 1005.1
20260506204818 52 177 19.0 34.0 0.00 0.00 0.00 94 1003.9
20260506204318 52 177 20.0 32.0 0.00 0.00 0.00 95 1005.3
20260506203818 52 177 22.0 35.0 0.00 0.00 0.00 95 1005.4
20260506203318 52 181 21.0 36.0 0.00 0.00 0.00 95 1005.0
20260506202718 52 174 15.0 29.0 0.00 0.00 0.00 95 1005.7
20260506202218 52 176 16.0 36.0 0.00 0.00 0.00 95 1005.5
20260506201718 52 176 18.0 31.0 0.00 0.00 0.00 94 1005.5
20260506201218 52 178 20.0 31.0 0.00 0.00 0.00 95 1005.4
20260506200718 52 177 17.0 29.0 0.00 0.00 0.00 94 1005.7
20260506200218 52 176 15.0 30.0 0.00 0.00 0.00 94 1005.8
20260506195718 52 174 0.0 30.0 0.00 0.00 0.00 94 1005.9
20260506195218 52 177 0.0 25.0 0.00 0.00 0.00 94 1006.0
20260506194718 52 167 13.0 27.0 0.00 0.00 0.00 94 1006.3
20260506194218 52 176 13.0 26.0 0.00 0.00 0.00 94 1006.2
20260506193718 52 167 15.0 27.0 0.00 0.00 0.00 94 1005.9
20260506193218 52 179 16.0 28.0 0.00 0.00 0.00 93 1006.3
20260506192718 52 167 13.0 28.0 0.00 0.00 0.00 93 1006.3
20260506192218 52 178 14.0 30.0 0.00 0.00 0.00 93 1006.2
20260506191718 52 176 0.0 29.0 0.00 0.00 0.00 93 1006.4
20260506191218 52 177 13.0 27.0 0.00 0.00 0.00 93 1006.4
20260506190718 52 174 0.0 29.0 0.00 0.00 0.00 93 1006.5
20260506190218 52 175 0.0 26.0 0.00 0.00 0.00 93 1006.7
20260506185718 52 170 12.0 27.0 0.00 0.00 0.00 93 1006.5
20260506185218 52 170 0.0 26.0 0.00 0.00 0.00 92 1006.8
20260506184718 52 171 0.0 28.0 0.00 0.00 0.00 92 1006.6
20260506184218 53 174 0.0 28.0 0.00 0.00 0.00 92 1006.7
20260506183718 53 187 0.0 26.0 0.00 0.00 0.00 92 1006.8
20260506183218 53 176 14.0 30.0 0.00 0.00 0.00 92 1006.8
20260506182718 53 178 0.0 30.0 0.00 0.00 0.00 92 1005.2
20260506182217 53 169 14.0 28.0 0.00 0.00 0.00 92 1006.7
20260506181717 53 181 0.0 29.0 0.00 0.00 0.00 91 1006.7
20260506181218 53 170 18.0 29.0 0.00 0.00 0.00 91 1006.7
20260506180718 54 171 0.0 32.0 0.00 0.00 0.00 91 1006.7
20260506180217 54 176 0.0 29.0 0.00 0.00 0.00 91 1007.1
20260506175717 54 165 0.0 27.0 0.00 0.00 0.00 91 1007.0
20260506175217 54 160 0.0 28.0 0.00 0.00 0.00 90 1007.4
20260506174717 54 159 0.0 34.0 0.00 0.00 0.00 90 1007.3
20260506174217 54 168 0.0 29.0 0.00 0.00 0.00 90 1007.7
20260506173720 54 182 0.0 30.0 0.00 0.00 0.00 91 1007.5
20260506173217 54 164 14.0 37.0 0.00 0.00 0.00 91 1007.7
20260506172717 54 173 0.0 30.0 0.00 0.00 0.00 91 1007.7
20260506172217 53 173 0.0 33.0 0.00 0.00 0.00 91 1007.7
20260506171718 53 171 0.0 28.0 0.00 0.00 0.00 91 1007.6
20260506171217 53 172 0.0 30.0 0.00 0.00 0.00 91 1007.7
20260506170717 54 173 0.0 31.0 0.00 0.00 0.00 90 1007.9
20260506170217 54 167 0.0 29.0 0.00 0.00 0.00 90 1007.8
20260506165717 55 179 14.0 27.0 0.00 0.00 0.00 89 1007.9
20260506165217 54 170 0.0 30.0 0.00 0.00 0.00 90 1007.7
20260506164717 54 177 14.0 28.0 0.00 0.00 0.00 90 1008.1
20260506164217 54 175 16.0 29.0 0.00 0.00 0.00 89 1008.1
20260506163717 54 174 13.0 29.0 0.00 0.00 0.00 89 1008.0
20260506163217 55 167 0.0 27.0 0.00 0.00 0.00 89 1008.2
20260506162717 55 174 0.0 30.0 0.00 0.00 0.00 90 1008.3
20260506162217 54 174 12.0 29.0 0.00 0.00 0.00 90 1008.2
20260506161717 54 167 13.0 29.0 0.00 0.00 0.00 90 1008.1
20260506161217 54 173 0.0 30.0 0.00 0.00 0.00 90 1008.2
20260506160717 54 167 0.0 34.0 0.00 0.00 0.00 90
20260506160217 54 174 14.0 29.0 0.00 0.00 0.00 91 1008.2
20260506155717 54 163 0.0 33.0 0.00 0.00 0.00 90 1008.5
20260506155217 54 165 0.0 30.0 0.00 0.00 0.00 90 1008.5
20260506154717 54 170 0.0 29.0 0.00 0.00 0.00 89 1008.7
20260506154217 55 180 0.0 28.0 0.00 0.00 0.00 89 1009.0
20260506153717 55 173 0.0 29.0 0.00 0.00 0.00 89 1008.8
20260506153217 55 166 0.0 28.0 0.00 0.00 0.00 89 1008.9
20260506152717 55 165 0.0 27.0 0.00 0.00 0.00 89 1008.9
20260506152217 55 169 0.0 29.0 0.00 0.00 0.00 89 1008.8
20260506151732 55 167 13.0 30.0 0.00 0.00 0.00 90 1008.8
20260506151217 54 170 0.0 30.0 0.00 0.00 0.00 90 1008.9
20260506150717 54 172 0.0 29.0 0.00 0.00 0.00 90 1009.0
20260506150217 54 171 0.0 29.0 0.00 0.00 0.00 90 1009.1
20260506145717 55 170 0.0 29.0 0.00 0.00 0.00 88 1008.9
20260506145217 55 174 0.0 29.0 0.00 0.00 0.00 89 1009.0
20260506144717 54 175 14.0 27.0 0.00 0.00 0.00 90 1008.8
20260506144217 54 169 0.0 27.0 0.00 0.00 0.00 90 1008.8
20260506143717 54 173 0.0 29.0 0.00 0.00 0.00 90 1008.9
20260506143217 54 169 0.0 27.0 0.00 0.00 0.00 91 1008.5
20260506142717 53 174 0.0 29.0 0.00 0.00 0.00 90 1008.7
20260506142117 54 163 0.0 29.0 0.00 0.00 0.00 89 1009.0
20260506141616 55 176 0.0 28.0 0.00 0.00 0.00 87 1008.9
20260506141117 56 192 0.0 27.0 0.00 0.00 0.00 88 1009.0
20260506140616 55 211 12.0 24.0 0.00 0.00 0.00 90 1009.2
20260506140116 55 172 10.0 25.0 0.00 0.00 0.00 88 1009.0
20260506135617 56 183 11.0 23.0 0.00 0.00 0.00 87 1009.0
20260506135117 56 181 0.0 24.0 0.00 0.00 0.00 86 1009.1
20260506134617 56 179 10.0 24.0 0.00 0.00 0.00 86 1009.3
20260506134116 56 246 10.0 23.0 0.00 0.00 0.00 87 1009.4
20260506133616 56 331 8.0 20.0 0.00 0.00 0.00 85 1009.6
20260506133133 57 57 7.0 19.0 0.00 0.00 0.00 85
20260506132617 57 39 8.0 21.0 0.00 0.00 0.00 87 1009.7
20260506132116 57 228 11.0 22.0 0.00 0.00 0.00 86 1009.8
20260506131616 57 238 13.0 22.0 0.00 0.00 0.00 86 1009.7
20260506131116 57 138 8.0 19.0 0.00 0.00 0.00 86 1009.7
20260506130616 57 39 9.0 26.0 0.00 0.00 0.00 87 1009.6
20260506130116 56 144 10.0 28.0 0.00 0.00 0.00 87 1009.4
20260506125616 56 171 0.0 26.0 0.00 0.00 0.00 88 1009.3
20260506125116 56 183 11.0 29.0 0.00 0.00 0.00 88 1007.8
20260506124616 56 228 13.0 28.0 0.00 0.00 0.00 88 1009.3
20260506124116 56 192 14.0 27.0 0.00 0.00 0.00 88 1009.3
20260506123616 56 168 10.0 25.0 0.00 0.00 0.00 88 1009.4
20260506123116 55 213 12.0 25.0 0.00 0.00 0.00 88 1009.4
20260506122616 55 204 9.0 24.0 0.00 0.00 0.00 88
20260506122116 55 243 11.0 22.0 0.00 0.00 0.00 89 1009.5
20260506121616 0 198 11.0 25.0 0.00 0.00 0.00 1009.4
20260506121116 54 333 8.0 22.0 0.00 0.00 0.00 90 1009.5
20260506120616 54 228 9.0 24.0 0.00 0.00 0.00 89 1009.6
20260506120116 55 161 9.0 20.0 0.00 0.00 0.00 90 1009.7
20260506115616 55 250 9.0 21.0 0.00 0.00 0.00 90 1009.7
20260506115116 54 128 9.0 21.0 0.00 0.00 0.00 91 1009.7
20260506114616 54 244 9.0 22.0 0.00 0.00 0.00 91 1009.7
20260506114116 54 99 10.0 20.0 0.00 0.00 0.00 92 1009.7
20260506113616 54 338 8.0 21.0 0.00 0.00 0.00 93
20260506113116 53 130 9.0 22.0 0.00 0.00 0.00 94 1009.8
20260506112616 53 211 12.0 26.0 0.00 0.00 0.00 95 1009.7
20260506112116 53 156 9.0 24.0 0.00 0.00 0.00 96 1009.6
20260506111616 52 193 10.0 29.0 0.00 0.00 0.00 96 1009.7
20260506111116 52 213 0.0 29.0 0.00 0.00 0.00 96 1009.6
20260506110616 51 184 9.0 30.0 0.00 0.00 0.00 96 1009.4
20260506110116 51 199 11.0 28.0 0.00 0.00 0.00 96 1009.3
20260506105616 51 208 12.0 28.0 0.00 0.00 0.00 96 1009.5
20260506105116 51 193 11.0 28.0 0.00 0.00 0.00 96 1009.5
20260506104616 51 214 10.0 21.0 0.00 0.00 0.00 96 1009.7
20260506104116 52 321 9.0 20.0 0.00 0.00 0.00 96 1009.7
20260506103616 52 341 8.0 20.0 0.00 0.00 0.00 97 1009.7
20260506103133 51 180 7.0 23.0 0.00 0.00 0.00 96 1009.7
20260506102616 51 50 9.0 19.0 0.00 0.00 0.00 97 1009.7
20260506102116 51 310 9.0 24.0 0.00 0.00 0.00 97 1009.6
20260506101616 51 228 11.0 21.0 0.00 0.00 0.00 97 1009.5
20260506101116 51 337 9.0 20.0 0.00 0.00 0.00 97 1009.5
20260506100616 51 260 8.0 22.0 0.00 0.00 0.00 97 1009.6
20260506100116 51 186 10.0 23.0 0.00 0.00 0.00 97 1009.6
20260506095616 51 227 0.0 22.0 0.00 0.00 0.00 97 1009.6
20260506095116 51 257 12.0 27.0 0.00 0.00 0.00 97 1009.3
20260506094616 51 199 0.0 26.0 0.00 0.00 0.00 97 1009.1
20260506094116 51 212 14.0 32.0 0.00 0.00 0.00 97 1009.1
20260506093616 51 214 13.0 27.0 0.00 0.00 0.00 97 1009.0
20260506093116 51 194 0.0 27.0 0.00 0.00 0.00 97 1009.1
20260506092616 51 160 0.0 30.0 0.00 0.00 0.00 97 1009.2
20260506092116 51 257 11.0 25.0 0.00 0.00 0.00 97 1009.5
20260506091615 51 274 0.0 20.0 0.00 0.00 0.00 97 1009.8
20260506091115 51 230 13.0 27.0 0.00 0.00 0.00 97 1009.8
20260506090615 51 229 12.0 22.0 0.00 0.00 0.00 97 1009.8
20260506090116 51 271 8.0 21.0 0.00 0.00 0.00 97 1009.7
20260506085616 51 49 10.0 25.0 0.00 0.00 0.00 97 1009.7
20260506085115 51 349 8.0 25.0 0.00 0.00 0.00 97 1009.7
20260506084616 51 248 10.0 29.0 0.00 0.00 0.00 97 1009.7
20260506084115 51 209 12.0 23.0 0.00 0.00 0.00 97 1009.5
20260506083616 51 119 0.0 26.0 0.00 0.00 0.00 97 1009.6
20260506083116 51 216 15.0 31.0 0.00 0.00 0.00 97 1009.6
20260506082616 51 186 0.0 28.0 0.00 0.00 0.00 97 1009.0
20260506082116 51 215 0.0 29.0 0.00 0.00 0.00 97 1009.4
20260506081615 51 206 14.0 23.0 0.00 0.00 0.00 97 1009.3
20260506081115 51 101 0.0 25.0 0.00 0.00 0.00 97 1009.6
20260506080615 51 236 0.0 26.0 0.00 0.00 0.00 97 1009.5
20260506080116 51 204 0.0 28.0 0.00 0.00 0.00 97 1009.6
20260506073115 51 203 14.0 27.0 0.00 0.00 0.00 97 1009.6
20260506072615 51 208 12.0 27.0 0.00 0.00 0.00 97 1009.7
20260506072115 51 182 14.0 26.0 0.00 0.00 0.00 97 1009.5
20260506071615 51 181 15.0 28.0 0.00 0.00 0.00 97 1009.5
20260506071115 51 187 0.0 29.0 0.00 0.00 0.00 97 1009.6
20260506070615 51 197 16.0 30.0 0.00 0.00 0.00 97 1009.2
20260506070115 51 202 0.0 29.0 0.00 0.00 0.00 97 1009.6
20260506062115 51 223 16.0 29.0 0.00 0.00 0.00 96 1009.2
20260506061615 51 199 0.0 29.0 0.00 0.00 0.00 95 1009.3
20260506061115 51 193 15.0 32.0 0.00 0.00 0.00 96 1009.1
20260506060615 51 186 13.0 30.0 0.00 0.00 0.00 96 1009.0
20260506060115 51 212 0.0 33.0 0.00 0.00 0.00 95 1009.1
20260506051115 51 212 15.0 29.0 0.00 0.00 0.00 96 1009.2
20260506050615 51 179 12.0 30.0 0.00 0.00 0.00 96 1009.6
20260506050115 51 222 0.0 30.0 0.00 0.00 0.00 96 1009.5
20260506045115 51 208 15.0 30.0 0.00 0.00 0.00 96 1009.5
20260506044615 51 183 0.0 29.0 0.00 0.00 0.00 96 1009.8
20260506044115 51 166 0.0 29.0 0.00 0.00 0.00 96 1009.8
20260506043615 51 106 0.0 30.0 0.00 0.00 0.00 96 1009.8
20260506043115 51 264 0.0 28.0 0.00 0.00 0.00 96 1009.8
20260506042615 51 215 0.0 28.0 0.00 0.00 0.00 96 1009.8
20260506042115 51 182 0.0 28.0 0.00 0.00 0.00 96 1009.9
20260506041615 51 225 13.0 28.0 0.00 0.00 0.00 96 1009.8
20260506041114 51 210 13.0 29.0 0.00 0.00 0.00 96 1009.9
20260506040615 51 242 0.0 27.0 0.00 0.00 0.00 96 1010.0
20260506040115 51 195 0.0 31.0 0.00 0.00 0.00 96 1010.1
20260506035615 51 245 10.0 23.0 0.00 0.00 0.00 96 1010.0
20260506035115 51 240 10.0 26.0 0.00 0.00 0.00 95 1010.1
20260506034615 51 240 12.0 24.0 0.00 0.00 0.00 95 1010.1
20260506034115 51 155 9.0 28.0 0.00 0.00 0.00 95 1010.2
20260506033615 51 173 9.0 25.0 0.00 0.00 0.00 95 1010.2
20260506033115 51 156 8.0 26.0 0.00 0.00 0.00 95 1010.2
20260506032615 51 226 10.0 24.0 0.00 0.00 0.00 95 1008.3
20260506032115 51 43 8.0 24.0 0.00 0.00 0.00 95 1010.1
20260506031615 51 33 8.0 25.0 0.00 0.00 0.00 95 1010.1
20260506031114 51 16 9.0 21.0 0.00 0.00 0.00 94 1009.9
20260506030614 51 72 10.0 22.0 0.00 0.00 0.00 94 1010.1
20260506030115 51 255 10.0 22.0 0.00 0.00 0.00 94 1009.9
20260506025615 51 233 10.0 23.0 0.00 0.00 0.00 94 1009.9
20260506025114 51 260 11.0 25.0 0.00 0.00 0.00 94 1009.8
20260506024614 51 141 9.0 23.0 0.00 0.00 0.00 94 1010.0
20260506024114 51 34 8.0 21.0 0.00 0.00 0.00 94 1010.0
20260506023614 51 37 9.0 30.0 0.00 0.00 0.00 94 1010.0
20260506023114 52 47 0.0 24.0 0.00 0.00 0.00 94 1009.9
20260506022614 51 29 0.0 23.0 0.00 0.00 0.00 94 1008.4
20260506022114 51 29 0.0 23.0 0.00 0.00 0.00 93 1010.0
20260506021614 51 270 9.0 26.0 0.00 0.00 0.00 93 1010.0
20260506021114 52 63 0.0 24.0 0.00 0.00 0.00 93 1010.0
20260506020614 52 354 8.0 24.0 0.00 0.00 0.00 93 1010.0
20260506020114 52 266 0.0 28.0 0.00 0.00 0.00 92 1009.9
20260506015614 52 111 0.0 29.0 0.00 0.00 0.00 92 1009.8
20260506015114 52 306 10.0 24.0 0.00 0.00 0.00 92 1009.9
20260506014614 52 35 0.0 30.0 0.00 0.00 0.00 92 1008.1
20260506014114 52 101 0.0 24.0 0.00 0.00 0.00 92 1009.7
20260506013614 52 81 8.0 30.0 0.00 0.00 0.00 92 1009.6
20260506013114 52 274 0.0 28.0 0.00 0.00 0.00 91 1009.7
20260506012614 52 232 0.0 30.0 0.00 0.00 0.00 91 1009.4
20260506012014 52 6 10.0 31.0 0.00 0.00 0.00 91 1009.4
20260506011514 52 235 0.0 30.0 0.00 0.00 0.00 91 1009.2
20260506011014 52 227 0.0 26.0 0.00 0.00 0.00 90 1009.3
20260506010514 52 70 10.0 28.0 0.00 0.00 0.00 90 1009.2
20260506010014 52 57 8.0 27.0 0.00 0.00 0.00 89 1009.2
20260506005514 52 48 0.0 28.0 0.00 0.00 0.00 89 1009.0
20260506005014 52 37 10.0 29.0 0.00 0.00 0.00 88 1008.8
20260506004514 52 177 0.0 29.0 0.00 0.00 0.00 88 1008.8
20260506004014 52 107 0.0 31.0 0.00 0.00 0.00 88 1008.7
20260506003514 52 180 0.0 30.0 0.00 0.00 0.00 88 1008.5
20260506003014 52 175 0.0 29.0 0.00 0.00 0.00 88 1008.4
20260506002514 52 199 0.0 28.0 0.00 0.00 0.00 88 1006.7
20260506002015 52 195 0.0 28.0 0.00 0.00 0.00 88 1008.4
20260506001514 52 219 0.0 29.0 0.00 0.00 0.00 88 1008.3
20260506001014 52 239 13.0 33.0 0.00 0.00 0.00 88 1008.1
20260506000514 52 218 0.0 30.0 0.00 0.00 0.00 88 1008.1
20260506000014 52 168 16.0 32.0 0.00 0.00 0.00 88 1008.3
20260505235514 52 101 12.0 26.0 0.00 0.00 0.00 88 1008.2
20260505235014 52 45 0.0 25.0 0.00 0.00 0.00 88 1008.3
20260505234514 52 47 10.0 25.0 0.00 0.00 0.00 88 1008.6
20260505234014 52 50 8.0 21.0 0.00 0.00 0.00 88 1008.3
20260505233514 52 71 0.0 22.0 0.00 0.00 0.00 87 1008.4
20260505233014 52 64 9.0 29.0 0.00 0.00 0.00 87 1008.4
20260505232514 52 102 0.0 25.0 0.00 0.00 0.00 87 1008.2
20260505232014 52 54 8.0 25.0 0.00 0.00 0.00 87
20260505231514 53 55 8.0 28.0 0.00 0.00 0.00 87 1008.0